Weather History for Buckhannon, WV

Change the Weather History Date:

Monday, May 12, 2014

  Actual Average (KEKN) Record (KEKN)
Temperature  
Mean Temperature 70 °F 57 °F  
Max Temperature 82 °F 70 °F 88 °F (1914)
Min Temperature 59 °F 44 °F 25 °F (1913)
Degree Days  
Heating Degree Days 0 8  
Month to date heating degree days 117  
Since 1 July heating degree days 5680  
Cooling Degree Days 6 0  
Month to date cooling degree days 0  
Year to date cooling degree days 3  
Growing Degree Days 20 (Base 50)    
Moisture  
Dew Point 60 °F    
Average Humidity 72    
Maximum Humidity 100    
Minimum Humidity 51    
Precipitation  
Precipitation 0.15 in 0.17 in 1.39 in (1924)
Month to date precipitation 1.90  
Year to date precipitation 15.99  
Snow  
Snow 0.00 in - - ()
Month to date snowfall  
Since 1 September snowfall  
Snow Depth -    
Sea Level Pressure  
Sea Level Pressure 30.16 in    
Wind  
Wind Speed 3 mph (SW)    
Max Wind Speed 15 mph    
Max Gust Speed 30 mph    
Visibility 10 miles    
Events Rain    
T = Trace of Precipitation, MM = Missing Value Source: NWS Daily Summary

Daily Weather History Graph

Daily Weather History Graph

Search for Another Location

Airport:

Trip Planner

Search our weather history database for the weather conditions in past years. The results will help you decide how hot, cold, wet, or windy it might be!

Date:

Astronomy

May. 12, 2014 Rise Set
Actual Time 6:11 AM EDT 8:24 PM EDT
Civil Twilight 5:41 AM EDT 8:54 PM EDT
Nautical Twilight 5:04 AM EDT 9:30 PM EDT
Astronomical Twilight 4:24 AM EDT 10:11 PM EDT
Moon 6:21 PM EDT (5/12) 4:48 AM EDT (5/12)
Length of Visible Light 15h 12m
Length of Day
14h 13m
Waxing Gibbous, 95% of the Moon is Illuminated
May 12
Waxing Gibbous
May 14
Full
May 21
Last Quarter
May 28
New
Jun 5
First Quarter

Hourly Weather History & Observations

Time (EDT) Temp. Heat Index Dew Point Humidity Pressure Visibility Wind Dir Wind Speed Gust Speed Precip Events Conditions
12:15 AM 62.6 °F - 53.6 °F 72% 30.16 in 10.0 mi Calm Calm - N/A   Partly Cloudy
12:35 AM 62.6 °F - 51.8 °F 68% 30.16 in 10.0 mi Calm Calm - N/A   Partly Cloudy
12:55 AM 62.6 °F - 53.6 °F 72% 30.16 in 10.0 mi Calm Calm - N/A   Clear
1:15 AM 62.6 °F - 53.6 °F 72% 30.16 in 10.0 mi Calm Calm - N/A   Scattered Clouds
1:35 AM 62.6 °F - 53.6 °F 72% 30.16 in 10.0 mi Calm Calm - N/A   Scattered Clouds
1:55 AM 62.6 °F - 51.8 °F 68% 30.15 in 10.0 mi Calm Calm - N/A   Partly Cloudy
2:15 AM 62.6 °F - 51.8 °F 68% 30.14 in 10.0 mi Calm Calm - N/A   Scattered Clouds
2:35 AM 60.8 °F - 53.6 °F 77% 30.14 in 10.0 mi Calm Calm - N/A   Partly Cloudy
2:55 AM 60.8 °F - 53.6 °F 77% 30.13 in 10.0 mi Calm Calm - N/A   Clear
3:15 AM 60.8 °F - 53.6 °F 77% 30.13 in 10.0 mi Calm Calm - N/A   Partly Cloudy
3:35 AM 60.8 °F - 53.6 °F 77% 30.13 in 10.0 mi Calm Calm - N/A   Scattered Clouds
3:55 AM 60.8 °F - 51.8 °F 72% 30.13 in 10.0 mi Calm Calm - N/A   Partly Cloudy
4:15 AM 59.0 °F - 53.6 °F 82% 30.13 in 10.0 mi Calm Calm - N/A   Clear
4:35 AM 59.0 °F - 53.6 °F 82% 30.13 in 10.0 mi Calm Calm - N/A   Clear
4:55 AM 60.8 °F - 51.8 °F 72% 30.13 in 10.0 mi Calm Calm - N/A   Partly Cloudy
5:15 AM 60.8 °F - 51.8 °F 72% 30.14 in 10.0 mi Calm Calm - N/A   Mostly Cloudy
5:35 AM 60.8 °F - 51.8 °F 72% 30.15 in 10.0 mi Calm Calm - N/A   Scattered Clouds
5:55 AM 59.0 °F - 53.6 °F 82% 30.16 in 10.0 mi SSW 5.8 mph - N/A   Scattered Clouds
6:15 AM 60.8 °F - 51.8 °F 72% 30.16 in 10.0 mi SSW 4.6 mph - N/A   Partly Cloudy
6:35 AM 60.8 °F - 53.6 °F 77% 30.17 in 10.0 mi Calm Calm - N/A   Partly Cloudy
6:55 AM 62.6 °F - 53.6 °F 72% 30.18 in 10.0 mi Calm Calm - N/A   Partly Cloudy
7:15 AM 62.6 °F - 53.6 °F 72% 30.18 in 10.0 mi Calm Calm - N/A   Partly Cloudy
7:35 AM 62.6 °F - 55.4 °F 77% 30.18 in 10.0 mi Calm Calm - N/A   Scattered Clouds
7:55 AM 62.6 °F - 55.4 °F 77% 30.18 in 10.0 mi Calm Calm - N/A   Scattered Clouds
8:15 AM 64.4 °F - 55.4 °F 73% 30.17 in 10.0 mi Calm Calm - N/A   Scattered Clouds
8:35 AM 66.2 °F - 57.2 °F 73% 30.18 in 10.0 mi Calm Calm - N/A   Scattered Clouds
8:55 AM 66.2 °F - 57.2 °F 73% 30.18 in 10.0 mi Calm Calm - N/A   Scattered Clouds
9:15 AM 66.2 °F - 59.0 °F 78% 30.21 in 8.0 mi West 10.4 mph - N/A Rain Rain
9:35 AM 62.6 °F - 60.8 °F 94% 30.22 in 4.0 mi West 9.2 mph 29.9 mph 0.10 in Rain Rain
9:55 AM 62.6 °F - 62.6 °F 100% 30.22 in 2.5 mi Calm Calm - 0.15 in Rain Rain
10:15 AM 62.6 °F - 62.6 °F 100% 30.20 in 10.0 mi SSE 8.1 mph - N/A   Mostly Cloudy
10:35 AM 62.6 °F - 62.6 °F 100% 30.20 in 10.0 mi South 8.1 mph - N/A   Partly Cloudy
10:55 AM 66.2 °F - 66.2 °F 100% 30.20 in 10.0 mi South 8.1 mph - N/A   Clear
11:15 AM 68.0 °F - 66.2 °F 94% 30.21 in 10.0 mi South 9.2 mph - N/A   Partly Cloudy
11:35 AM 69.8 °F - 66.2 °F 88% 30.20 in 10.0 mi South 9.2 mph - N/A   Scattered Clouds
11:55 AM 71.6 °F - 64.4 °F 78% 30.20 in 10.0 mi SSW 11.5 mph 16.1 mph N/A   Scattered Clouds
12:15 PM 71.6 °F - 64.4 °F 78% 30.19 in 10.0 mi SSW 13.8 mph - N/A   Scattered Clouds
12:35 PM 73.4 °F - 64.4 °F 73% 30.20 in 10.0 mi SW 15.0 mph 18.4 mph N/A   Scattered Clouds
12:55 PM 75.2 °F - 64.4 °F 69% 30.19 in 10.0 mi SW 6.9 mph - N/A   Mostly Cloudy
1:15 PM 77.0 °F - 62.6 °F 61% 30.18 in 10.0 mi WSW 10.4 mph - N/A   Scattered Clouds
1:35 PM 78.8 °F - 62.6 °F 57% 30.18 in 10.0 mi West 10.4 mph - N/A   Clear
1:55 PM 78.8 °F - 60.8 °F 54% 30.19 in 10.0 mi SW 11.5 mph - N/A   Clear
2:15 PM 78.8 °F - 62.6 °F 57% 30.19 in 10.0 mi WSW 12.7 mph 17.3 mph N/A   Partly Cloudy
2:35 PM 78.8 °F - 62.6 °F 57% 30.19 in 10.0 mi West 8.1 mph - N/A   Clear
2:55 PM 78.8 °F - 64.4 °F 61% 30.18 in 10.0 mi SW 8.1 mph - N/A   Scattered Clouds
3:35 PM 80.6 °F 82.3 °F 64.4 °F 58% 30.17 in 10.0 mi SW 13.8 mph - N/A   Scattered Clouds
3:55 PM 80.6 °F 82.3 °F 64.4 °F 58% 30.16 in 10.0 mi SW 9.2 mph - N/A   Scattered Clouds
4:15 PM 82.4 °F 83.9 °F 64.4 °F 54% 30.15 in 10.0 mi WSW 8.1 mph - N/A   Partly Cloudy
4:35 PM 80.6 °F 82.3 °F 64.4 °F 58% 30.15 in 10.0 mi SW 11.5 mph - N/A   Scattered Clouds
4:55 PM 80.6 °F 82.3 °F 64.4 °F 58% 30.14 in 10.0 mi West 10.4 mph - N/A   Scattered Clouds
5:15 PM 80.6 °F 82.3 °F 64.4 °F 58% 30.14 in 10.0 mi SW 6.9 mph - N/A   Partly Cloudy
5:35 PM 82.4 °F 83.9 °F 64.4 °F 54% 30.13 in 10.0 mi SW 5.8 mph - N/A   Clear
5:55 PM 82.4 °F 83.9 °F 64.4 °F 54% 30.13 in 10.0 mi WSW 8.1 mph - N/A   Clear
6:15 PM 82.4 °F 83.4 °F 62.6 °F 51% 30.13 in 10.0 mi West 5.8 mph - N/A   Clear
6:35 PM 80.6 °F 81.8 °F 62.6 °F 54% 30.13 in 10.0 mi West 8.1 mph - N/A   Clear
6:55 PM 80.6 °F 81.8 °F 62.6 °F 54% 30.14 in 10.0 mi Calm Calm - N/A   Clear
7:15 PM 80.6 °F 82.3 °F 64.4 °F 58% 30.14 in 10.0 mi South 4.6 mph - N/A   Clear
7:35 PM 78.8 °F - 62.6 °F 57% 30.14 in 10.0 mi SW 4.6 mph - N/A   Partly Cloudy
7:55 PM 78.8 °F - 62.6 °F 57% 30.14 in 10.0 mi Calm Calm - N/A   Clear
8:15 PM 78.8 °F - 62.6 °F 57% 30.14 in 10.0 mi Calm Calm - N/A   Clear
8:35 PM 77.0 °F - 62.6 °F 61% 30.14 in 10.0 mi Calm Calm - N/A   Clear
8:55 PM 75.2 °F - 62.6 °F 65% 30.14 in 10.0 mi Calm Calm - N/A   Clear
9:15 PM 75.2 °F - 64.4 °F 69% 30.14 in 10.0 mi Calm Calm - N/A   Clear
9:35 PM 73.4 °F - 64.4 °F 73% 30.14 in 10.0 mi Calm Calm - N/A   Clear
9:55 PM 73.4 °F - 64.4 °F 73% 30.14 in 10.0 mi Calm Calm - N/A   Clear
10:15 PM 71.6 °F - 66.2 °F 83% 30.15 in 10.0 mi Calm Calm - N/A   Clear
10:35 PM 69.8 °F - 64.4 °F 83% 30.14 in 10.0 mi ESE 4.6 mph - N/A   Clear
10:55 PM 69.8 °F - 64.4 °F 83% 30.14 in 10.0 mi Calm Calm - N/A   Clear
11:15 PM 69.8 °F - 64.4 °F 83% 30.15 in 10.0 mi Calm Calm - N/A   Clear
11:35 PM 69.8 °F - 64.4 °F 83% 30.15 in 10.0 mi Calm Calm - N/A   Clear
11:55 PM 69.8 °F - 64.4 °F 83% 30.14 in 10.0 mi Calm Calm - N/A   Clear